ARIANE 1 DEB, 28556

Orbit data source: Space-Track

ARIANE 1 DEB, 28556 is space debris in HEO originally from a launch on Mon, 24 Dec 1979 UTC launched from the French Guiana (FRGUI). Debris objects in space refer to the collection of defunct objects orbiting the Earth. Examples of debris include non-operational satellites, rocket bodies, and fragments generated from explosions, collisions, or faulty payload assembly.

Loading next visibility...
Identifier
28556, 1979-104V
Orbit
HEO
Country
Flag of FRFR
Related business
Manufacturer
Unknown
Mission
Spacecraft
Bus & Motor
Unknown
Mass
Unknown
Launch date (UTC)
1979-12-24 (46 years ago)
Launch vehicle
Unknown
Launch site
French Guiana (FRGUI)
Object type
Payload
Rocket body
Debris
Shape & HBR
Unknown shape, 0.2 m
Radar Cross Section
Medium (>0.1 m² and <1 m²)

Expand to show TLE details & history
Last TLE update: 2 days ago

TLE from 2 days ago
0 ARIANE 1 DEB
1 28556U 79104V   26171.44158027 -.00000094  00000-0  16629-1 0  9994
2 28556  15.4531 247.8577 7313262  62.1187   5.0383  1.95682123 95422
Epoch: 2026-06-20T10:35Z
TLE epoch observation values (Epoch: 2026-06-20T10:35:52.535Z)
Latitude
14.8683°
Longitude
-72.18482°
Altitude
1,891.492 km
Speed
9.036 km/s
True Right ascension
23h 41m 45s
True Declination
14° 47' 42"
Sunlit
Object was in daylight at epoch
Visualization orbit readout
Latitude
Unknown
Longitude
Unknown
Altitude
Unknown
Speed
Unknown
Apparent Right ascension
Unknown
Apparent Declination
Unknown
Sunlit
N/A
Visualization observer readout
Local Sidereal Time
00:50:26
Azimuth
Unknown
Elevation
Unknown
Doppler factor
Unknown
Orbital elements
Apogee altitude
40,376.082 km
Perigee altitude
877.361 km
Semi-major axis
27,004.858 km
Eccentricity
0.73133
Inclination
15.4531°
RAAN
247.8577°
Arg. of periapsis
62.1187°
True anomaly
43.70813°
Mean anomaly
5.0383°
Eccentric anomaly
17.95631°
Mean motion
0.48908 °/min
Orbital period
736.08 mins
BSTAR
0.016629
Loading maneuver chart data...
Computing Atmospheric mass density...
Loading historical data...
Loading historical data...
Loading historical data...
Loading historical data...
Loading historical data...
Loading historical data...
Loading historical data...

Documentation

Showing up to 5 results
|